Location: Austin
(30.3000°N, 97.7500°W)
Time: 21:59:07
(UTC-05:00)

Cosmos 1536 Rocket - Pass Details

Date: 20 April 2024
Orbit: 603 x 628 km, 82.5° (Epoch: 29 May)

Event Time Altitude Azimuth Distance (km) Brightness Sun altitude
Rises 21:41:17 0° 357° (N) 2,905 7.5 -20.7°
Reaches altitude 10° 21:43:31 10° 359° (N) 1,999 6.5 -21.1°
Maximum altitude 21:47:56 71° 83° (E) 665 3.4 -22.0°
Enters shadow 21:48:19 66° 121° (ESE) 684 3.4 -22.0°
